COSMOS 2491 DEB, 44992

Orbit data source: Space-Track

COSMOS 2491 DEB, 44992 is space debris in LEO originally from a launch on Wed, 25 Dec 2013 UTC launched from the Plesetsk Missile And Space Complex (PKMTR). Debris objects in space refer to the collection of defunct objects orbiting the Earth. Examples of debris include non-operational satellites, rocket bodies, and fragments generated from explosions, collisions, or faulty payload assembly.

Loading next visibility...
Identifier
44992, 2013-076N
Orbit
LEO
Country
Flag of CISCIS
Related business
Manufacturer
TsNIIKhM
Mission
Spacecraft
Bus & Motor
Unknown
Mass
Unknown
Launch date (UTC)
2013-12-25 (13 years ago)
Launch vehicle
Unknown
Launch site
Plesetsk Missile And Space Complex (PKMTR)
Object type
Payload
Rocket body
Debris
Shape & HBR
Unknown shape, 0.1 m
Radar Cross Section
Medium (>0.1 m² and <1 m²)

Expand to show TLE details & history
Last TLE update: 1 month ago

TLE from 1 month ago
0 COSMOS 2491 DEB
1 44992U 13076N   26223.40679750  .00001461  00000-0  86711-2 0  9995
2 44992  82.4688 113.1823 0057609  50.3029 310.3118 12.56827576300752
Epoch: 2026-08-11T09:45Z
TLE epoch observation values (Epoch: 2026-08-11T09:45:47.304Z)
Latitude
-0.00003°
Longitude
6.85967°
Altitude
1,409.809 km
Speed
7.169 km/s
True Right ascension
07h 32m 43s
True Declination
0° 00' 00"
Sunlit
Object was in daylight at epoch
Visualization orbit readout
Latitude
Unknown
Longitude
Unknown
Altitude
Unknown
Speed
Unknown
Apparent Right ascension
Unknown
Apparent Declination
Unknown
Sunlit
N/A
Visualization observer readout
Local Sidereal Time
22:28:11
Azimuth
Unknown
Elevation
Unknown
Doppler factor
Unknown
Orbital elements
Apogee altitude
1,478.4 km
Perigee altitude
1,388.397 km
Semi-major axis
7,811.536 km
Eccentricity
0.00576
Inclination
82.4688°
RAAN
113.1823°
Arg. of periapsis
50.3029°
True anomaly
309.80606°
Mean anomaly
310.3118°
Eccentric anomaly
310.05917°
Mean motion
3.14368 °/min
Orbital period
114.52 mins
BSTAR
0.0086711
Loading maneuver chart data...
Computing Atmospheric mass density...
Loading historical data...
Loading historical data...
Loading historical data...
Loading historical data...
Loading historical data...
Loading historical data...
Loading historical data...

Documentation

Showing up to 5 results
|